Location: El Gandul
(32.4984°N, 116.7135°W)
Time: 08:00:39
(UTC+00:00)

Cosmos 2315 Rocket - Pass Details

Date: 03 August 2024
Orbit: 965 x 1002 km, 82.9° (Epoch: 08 September)

Event Time Altitude Azimuth Distance (km) Brightness Sun altitude
Rises 12:20:08 0° 183° (S) 3,710 6.7 -9.1°
Reaches altitude 10° 12:22:39 10° 183° (S) 2,764 6.1 -8.6°
Maximum altitude 12:29:01 87° 95° (E) 1,006 4.2 -7.4°
Drops below altitude 10° 12:35:24 10° 7° (N) 2,768 6.8 -6.2°
Sets 12:37:56 0° 7° (N) 3,716 7.5 -5.7°
